STARLINK-30613, 58077

Orbit data source: Space-Track

STARLINK-30613, 58077 is a payload satellite owned by SpaceX/Seattle (US) in LEO that was launched on Wed, 18 Oct 2023 UTC via an FALCON 9 launch vehicle from the Air Force Eastern Test Range (AFETR). Payload-class satellites include a variety of spacecraft equipped with specific instruments for various scientific and technological missions. These include communications satellites like Starlink; space stations such as the ISS; scientific satellites like the Hubble; Earth observation satellites from companies like Planet Labs, Umbra, and HawkEye 360; GPS; miniature CubeSats for education and research; and military/defense satellites.

Loading next visibility...
Identifier
58077, 2023-160C
Orbit
LEO
Country
Flag of USUS
Related business
Manufacturer
SpaceX/Seattle
Mission
Operational Commercial Communications
Bus & Motor
STARLINK V2M, Unknown motor
Mass
730 kg wet, ~700 kg dry
Launch date (UTC)
2023-10-18 (3 years ago)
Launch vehicle
FALCON 9
Launch site
Air Force Eastern Test Range (AFETR)
Object type
Payload
Rocket body
Debris
Shape & HBR
Box + 2 Pan, 17.7 m
Radar Cross Section
33.884 m², Large (>1 m²)

Expand to show TLE details & history
Last TLE update: 2 days ago

TLE from 2 days ago
0 STARLINK-30613
1 58077U 23160C   26171.12962388  .00000474  00000-0  26771-4 0  9997
2 58077  43.0054 219.2902 0001890 280.6036  79.4603 15.27580981148629
Epoch: 2026-06-20T03:06Z
TLE epoch observation values (Epoch: 2026-06-20T03:06:39.503Z)
Latitude
0.00001°
Longitude
-95.72306°
Altitude
482.585 km
Speed
7.626 km/s
True Right ascension
14h 37m 09s
True Declination
0° 00' 00"
Sunlit
Object was in full shadow at epoch
Visualization orbit readout
Latitude
Unknown
Longitude
Unknown
Altitude
Unknown
Speed
Unknown
Apparent Right ascension
Unknown
Apparent Declination
Unknown
Sunlit
N/A
Visualization observer readout
Local Sidereal Time
00:27:40
Azimuth
Unknown
Elevation
Unknown
Doppler factor
Unknown
Orbital elements
Apogee altitude
486.288 km
Perigee altitude
483.693 km
Semi-major axis
6,863.127 km
Eccentricity
0.00019
Inclination
43.0054°
RAAN
219.2902°
Arg. of periapsis
280.6036°
True anomaly
79.48159°
Mean anomaly
79.4603°
Eccentric anomaly
79.47095°
Mean motion
3.81733 °/min
Orbital period
94.31 mins
BSTAR
0.000026771
Loading maneuver chart data...
Computing Atmospheric mass density...
Loading historical data...
Loading historical data...
Loading historical data...
Loading historical data...
Loading historical data...
Loading historical data...
Loading historical data...

Documentation

Showing up to 5 results
|